EW8921 Weather Reports


time (UTC)temp
F
wind
direction
speed
knots
gust
knots
rain 1hr
in
rain 24hr
in
rain mn
in
humidity
%
barometer
mb
20260508114549 45 0 0.0 0.9 0.00 0.00 0.00 66 1015.2
20260508114527 45 70 0.0 0.9 0.00 0.00 0.00 66 1010.1
20260508113055 45 0 0.0 0.9 0.00 0.00 0.00 66 1015.3
20260508113025 45 69 0.0 0.9 0.00 0.00 0.00 66 1010.1
20260508111601 45 74 0.0 1.7 0.00 0.00 0.00 65 1015.2
20260508111523 45 69 0.0 0.9 0.00 0.00 0.00 65 1010.1
20260508110049 45 0 0.0 0.9 0.00 0.00 0.00 64 1015.1
20260508110021 45 53 0.0 0.9 0.00 0.00 0.00 64 1010.1
20260508104548 46 0 0.0 0.9 0.00 0.00 0.00 62 1015.1
20260508104523 46 53 0.0 0.9 0.00 0.00 0.00 63 1010.1
20260508103054 46 0 0.0 0.0 0.00 0.00 0.00 62 1015.0
20260508103017 46 52 0.0 0.0 0.00 0.00 0.00 63 1010.0
20260508101550 47 0 0.0 0.0 0.00 0.00 0.00 61 1014.8
20260508101515 47 54 0.0 0.0 0.00 0.00 0.00 61 1009.9
20260508100050 48 0 0.0 0.0 0.00 0.00 0.00 59 1014.9
20260508100012 48 54 0.0 0.0 0.00 0.00 0.00 59 1010.0
20260508094550 48 0 0.0 0.9 0.00 0.00 0.00 59 1014.7
20260508094510 48 54 0.0 0.9 0.00 0.00 0.00 60 1009.9
20260508093051 48 0 0.0 0.9 0.00 0.00 0.00 58 1015.0
20260508093012 48 53 0.0 0.9 0.00 0.00 0.00 59 1010.0
20260508091600 48 0 0.0 0.0 0.00 0.00 0.00 57 1015.0
20260508091512 48 54 0.0 0.0 0.00 0.00 0.00 58 1010.0
20260508090053 48 0 0.0 0.9 0.00 0.00 0.00 56 1014.9
20260508090010 49 54 0.0 0.9 0.00 0.00 0.00 57 1009.9
20260508084557 49 0 0.0 1.7 0.00 0.00 0.00 57 1015.0
20260508084504 49 54 0.0 1.7 0.00 0.00 0.00 57 1010.0
20260508083055 49 59 0.0 0.9 0.00 0.00 0.00 56 1014.9
20260508083011 49 54 0.0 0.9 0.00 0.00 0.00 56 1010.2
20260508081606 49 54 0.0 0.9 0.00 0.00 0.00 55 1010.1
20260508081550 49 0 0.0 0.9 0.00 0.00 0.00 55 1014.7
20260508080101 50 54 0.0 0.9 0.00 0.00 0.00 55 1010.2
20260508074555 50 54 0.0 0.9 0.00 0.00 0.00 52 1010.3
20260508074548 50 0 0.0 0.9 0.00 0.00 0.00 52 1014.9
20260508073058 51 54 0.0 0.0 0.00 0.00 0.00 51 1010.3
20260508073055 51 0 0.0 0.9 0.00 0.00 0.00 50 1014.9
20260508071554 52 54 0.0 0.0 0.00 0.00 0.00 49 1010.3
20260508071551 52 0 0.0 0.0 0.00 0.00 0.00 48 1015.0
20260508070054 53 0 0.0 0.9 0.00 0.00 0.00 46 1014.9
20260508070045 53 54 0.0 0.9 0.00 0.00 0.00 47 1010.1
20260508064603 54 54 0.0 0.9 0.00 0.00 0.00 47 1010.1
20260508064556 54 59 0.0 0.9 0.00 0.00 0.00 46 1014.8
20260508063052 55 0 0.0 0.9 0.00 0.00 0.00 46 1014.9
20260508063040 55 54 0.0 0.9 0.00 0.00 0.00 46 1010.1
20260508061549 56 59 0.0 1.7 0.00 0.00 0.00 44 1014.7
20260508061541 56 54 0.0 1.7 0.00 0.00 0.00 44 1010.0
20260508060049 56 59 0.0 1.7 0.00 0.00 0.00 46 1014.5
20260508060031 56 54 0.0 2.6 0.00 0.00 0.00 46 1009.9
20260508054549 57 0 0.0 0.0 0.00 0.00 0.00 44 1014.6
20260508054530 57 302 0.0 0.0 0.00 0.00 0.00 45 1010.0
20260508053056 57 0 0.0 0.0 0.00 0.00 0.00 44 1014.7
20260508053030 57 302 0.0 0.0 0.00 0.00 0.00 45 1010.1
20260508051555 57 0 0.0 0.0 0.00 0.00 0.00 44 1014.7
20260508051530 57 302 0.0 0.0 0.00 0.00 0.00 45 1010.1
20260508050104 57 0 0.0 0.0 0.00 0.00 0.00 43 1014.9
20260508050029 57 302 0.0 0.0 0.00 0.00 0.00 44 1010.2
20260508044556 58 0 0.0 0.0 0.00 0.00 0.00 41 1014.9
20260508044529 58 302 0.0 0.0 0.00 0.00 0.00 42 1010.1
20260508043048 59 0 0.0 0.0 0.00 0.00 0.00 38 1014.9
20260508043032 59 302 0.0 0.0 0.00 0.00 0.00 39 1010.2
20260508041554 60 0 0.0 0.9 0.00 0.00 0.00 37 1015.0
20260508041528 60 302 0.0 0.9 0.00 0.00 0.00 38 1010.2
20260508040057 61 0 0.0 0.0 0.00 0.00 0.00 37 1015.0
20260508040027 61 302 0.0 0.0 0.00 0.00 0.00 37 1010.3
20260508034549 62 0 0.0 0.0 0.00 0.00 0.00 32 1014.9
20260508034527 62 302 0.0 0.0 0.00 0.00 0.00 33 1010.2
20260508033050 63 298 0.0 0.9 0.00 0.00 0.00 30 1014.7
20260508033026 63 302 0.0 0.9 0.00 0.00 0.00 31 1010.1
20260508031555 64 0 0.0 0.9 0.00 0.00 0.00 29 1014.7
20260508031527 64 264 0.0 0.9 0.00 0.00 0.00 29 1010.1
20260508030056 65 0 0.0 0.0 0.00 0.00 0.00 28 1014.5
20260508030025 65 264 0.0 0.0 0.00 0.00 0.00 29 1010.1
20260508024555 65 0 0.0 0.0 0.00 0.00 0.00 29 1014.4
20260508024528 65 264 0.0 0.0 0.00 0.00 0.00 29 1009.9
20260508023053 66 0 0.0 0.0 0.00 0.00 0.00 27 1014.4
20260508023033 66 264 0.0 0.0 0.00 0.00 0.00 27 1009.9
20260508021552 68 0 0.0 0.0 0.00 0.00 0.00 24 1014.2
20260508021523 68 264 0.0 0.0 0.00 0.00 0.00 24 1009.7
20260508020057 70 0 0.0 0.9 0.00 0.00 0.00 22 1014.1
20260508020023 70 266 0.0 0.9 0.00 0.00 0.00 22 1009.6
20260508014554 72 0 0.0 0.0 0.00 0.00 0.00 20 1014.0
20260508014531 72 264 0.0 0.0 0.00 0.00 0.00 21 1009.6
20260508013056 74 0 0.0 7.0 0.00 0.00 0.00 18 1013.9
20260508013022 74 264 0.0 3.5 0.00 0.00 0.00 19 1009.5
20260508011553 76 271 0.0 2.6 0.00 0.00 0.00 18 1014.1
20260508011525 76 274 0.0 2.6 0.00 0.00 0.00 18 1009.7
20260508010057 75 105 1.7 5.2 0.00 0.00 0.00 18 1014.1
20260508010022 75 274 1.7 4.3 0.00 0.00 0.00 18 1009.8
20260508004554 74 234 0.9 2.6 0.00 0.00 0.00 19 1014.1
20260508004517 74 278 0.0 2.6 0.00 0.00 0.00 20 1009.8
20260508003051 73 281 1.7 6.1 0.00 0.00 0.00 20 1014.2
20260508003017 73 285 1.7 5.2 0.00 0.00 0.00 20 1010.0
20260508001556 74 269 1.7 5.2 0.00 0.00 0.00 19 1014.4
20260508001513 74 238 1.7 4.3 0.00 0.00 0.00 19 1010.2
20260508000055 73 252 4.3 7.8 0.00 0.00 0.00 19 1014.3
20260508000017 73 269 3.5 7.0 0.00 0.00 0.00 19 1010.3
20260507234559 75 249 0.9 5.2 0.00 0.00 0.00 18 1014.3
20260507234517 75 252 0.0 4.3 0.00 0.00 0.00 19 1010.3
20260507233116 75 265 2.6 8.7 0.00 0.00 0.00 18 1014.3
20260507233012 75 269 2.6 7.8 0.00 0.00 0.00 19 1010.3
20260507231551 77 96 0.9 4.3 0.00 0.00 0.00 17 1014.4
20260507231508 77 110 0.9 4.3 0.00 0.00 0.00 18 1010.5
20260507230051 74 100 1.7 7.0 0.00 0.00 0.00 18 1014.6
20260507230006 74 215 1.7 6.1 0.00 0.00 0.00 19 1010.7
20260507224553 76 333 0.9 4.3 0.00 0.00 0.00 17 1014.8
20260507224506 76 334 0.9 3.5 0.00 0.00 0.00 19 1011.1
20260507223105 74 70 0.9 5.2 0.00 0.00 0.00 19 1015.0
20260507223101 74 4 1.7 3.5 0.00 0.00 0.00 20 1011.4
20260507221559 73 277 3.5 6.1 0.00 0.00 0.00 19 1011.6
20260507221553 73 256 2.6 6.1 0.00 0.00 0.00 18 1015.1
20260507220055 75 267 1.7 4.3 0.00 0.00 0.00 19 1012.0
20260507220050 75 264 1.7 4.3 0.00 0.00 0.00 19 1015.6
20260507214601 73 253 2.6 6.1 0.00 0.00 0.00 20 1012.4
20260507214549 73 258 2.6 7.8 0.00 0.00 0.00 19 1015.8
20260507213104 73 280 2.6 7.0 0.00 0.00 0.00 19 1012.7
20260507213049 73 275 2.6 7.8 0.00 0.00 0.00 18 1016.0
20260507211601 71 62 1.7 7.0 0.00 0.00 0.00 21 1016.3
20260507211545 71 61 1.7 4.3 0.00 0.00 0.00 21 1013.1
20260507210106 71 266 1.7 8.7 0.00 0.00 0.00 19 1017.0
20260507210050 71 269 2.6 8.7 0.00 0.00 0.00 20 1013.5
20260507204548 72 285 3.5 7.8 0.00 0.00 0.00 18 1017.1
20260507203050 72 276 0.9 7.8 0.00 0.00 0.00 20 1017.4
20260507203035 72 280 0.0 5.2 0.00 0.00 0.00 21 1014.2
20260507201548 69 169 0.9 3.5 0.00 0.00 0.00 20 1017.6
20260507201532 69 169 0.9 3.5 0.00 0.00 0.00 20 1014.6
20260507200055 68 267 4.3 7.8 0.00 0.00 0.00 19 1018.0
20260507200035 68 282 4.3 7.0 0.00 0.00 0.00 20 1015.0
20260507194555 72 262 0.9 2.6 0.00 0.00 0.00 19 1018.3
20260507194524 72 271 0.9 3.5 0.00 0.00 0.00 20 1015.3
20260507193047 70 46 3.5 7.8 0.00 0.00 0.00 19 1018.4
20260507193026 70 97 2.6 6.1 0.00 0.00 0.00 19 1015.6
20260507191552 69 27 0.9 7.0 0.00 0.00 0.00 21 1018.5
20260507191517 68 289 0.9 4.3 0.00 0.00 0.00 21 1015.8
20260507190057 68 272 2.6 7.8 0.00 0.00 0.00 19 1019.0
20260507190031 68 84 0.9 7.0 0.00 0.00 0.00 19 1016.4
20260507184552 69 121 0.9 5.2 0.00 0.00 0.00 18 1019.4
20260507184510 69 51 0.9 5.2 0.00 0.00 0.00 19 1016.7
20260507183111 68 36 1.7 7.0 0.00 0.00 0.00 20 1019.5
20260507183016 68 67 1.7 6.1 0.00 0.00 0.00 20 1017.1
20260507181558 65 76 1.7 7.0 0.00 0.00 0.00 22 1019.9
20260507181507 65 44 0.9 5.2 0.00 0.00 0.00 22 1017.4
20260507180052 65 267 1.7 6.1 0.00 0.00 0.00 20 1020.0
20260507180002 65 285 1.7 4.3 0.00 0.00 0.00 20 1017.7
20260507174601 67 199 0.9 2.6 0.00 0.00 0.00 20 1018.0
20260507174559 67 86 0.9 6.1 0.00 0.00 0.00 19 1020.4
20260507173105 67 281 0.9 5.2 0.00 0.00 0.00 19 1020.6
20260507173100 67 297 0.9 4.3 0.00 0.00 0.00 18 1018.2
20260507171602 66 105 0.9 2.6 0.00 0.00 0.00 21 1018.4
20260507171549 66 117 0.9 3.5 0.00 0.00 0.00 21 1020.7
20260507170053 65 290 0.9 3.5 0.00 0.00 0.00 20 1020.9
20260507164613 62 125 0.9 7.0 0.00 0.00 0.00 24 1020.9
20260507164549 62 117 0.0 5.2 0.00 0.00 0.00 25 1018.6
20260507163054 62 54 0.0 3.5 0.00 0.00 0.00 25 1021.3
20260507163045 62 49 0.0 3.5 0.00 0.00 0.00 25 1019.2
20260507161559 60 122 1.7 3.5 0.00 0.00 0.00 26 1021.5
20260507161542 60 120 0.9 3.5 0.00 0.00 0.00 26 1019.5
20260507160050 57 155 0.9 7.0 0.00 0.00 0.00 29 1021.6
20260507160039 57 154 0.9 5.2 0.00 0.00 0.00 29 1019.7
20260507154557 56 161 1.7 6.1 0.00 0.00 0.00 30 1021.6
20260507154537 56 160 0.9 4.3 0.00 0.00 0.00 30 1019.7
20260507153056 54 167 1.7 8.7 0.00 0.00 0.00 32 1021.8
20260507153028 54 162 1.7 7.0 0.00 0.00 0.00 33 1020.0
20260507151549 53 141 2.6 7.0 0.00 0.00 0.00 33 1022.1
20260507151524 53 105 1.7 6.1 0.00 0.00 0.00 33 1020.4
20260507150055 52 161 2.6 6.1 0.00 0.00 0.00 35 1022.5
20260507150022 52 167 1.7 5.2 0.00 0.00 0.00 36 1020.9
20260507144550 52 145 0.9 4.3 0.00 0.00 0.00 35 1022.6
20260507144520 52 79 0.9 3.5 0.00 0.00 0.00 36 1021.1
20260507143101 51 127 1.7 7.0 0.00 0.00 0.00 37 1022.8
20260507143016 51 69 1.7 5.2 0.00 0.00 0.00 37 1021.3
20260507141559 49 176 0.9 4.3 0.00 0.00 0.00 36 1022.8
20260507141512 49 131 0.9 3.5 0.00 0.00 0.00 37 1021.2
20260507140058 46 110 1.7 5.2 0.00 0.00 0.00 43 1022.9
20260507140007 46 188 0.9 4.3 0.00 0.00 0.00 43 1021.4
20260507134555 44 134 2.6 6.1 0.00 0.00 0.00 45 1022.8
20260507134504 44 97 1.7 4.3 0.00 0.00 0.00 46 1021.3
20260507133056 43 169 0.9 4.3 0.00 0.00 0.00 45 1022.6
20260507133002 43 142 0.9 3.5 0.00 0.00 0.00 46 1021.1
20260507131618 43 135 0.9 3.5 0.00 0.00 0.00 44 1021.0
20260507131602 43 153 0.9 4.3 0.00 0.00 0.00 44 1022.5
20260507130111 43 140 0.0 2.6 0.00 0.00 0.00 46 1020.9
20260507130056 43 114 0.9 3.5 0.00 0.00 0.00 45 1022.5
20260507124607 41 143 0.9 2.6 0.00 0.04 0.00 47 1020.8
20260507123101 40 137 0.9 2.6 0.00 0.04 0.00 49 1020.8
20260507121558 40 166 0.9 2.6 0.00 0.04 0.00 49 1022.3
20260507121555 40 165 0.0 2.6 0.00 0.04 0.00 50 1020.8
20260507120053 40 163 0.0 1.7 0.00 0.04 0.00 49 1020.7